User: anonymous   Login
Location: UBC Liquid-Mirror Observatory
(49.2876°N, 122.5728°W)
Time: 17:17:05
(UTC-07:00)
Language:

KITSAT 1 - Orbit

View from above orbital plane
View from above orbital plane
View from above satellite
View from above satellite

Ground track
Ground track

The orbit data is extracted from the following two-line orbital elements,

1 22077U 92052B   17175.44266175 -.00000068 +00000-0 -26265-4 0  9993
2 22077 066.0856 311.3559 0009577 322.8621 096.8955 12.86518464167955
Epoch (UTC): 24 June 2017 10:37:25
Eccentricity: 0.0009577
inclination: 66.0856°
perigee height: 1308 km
apogee height: 1323 km
right ascension of ascending node: 311.3559°
argument of perigee: 322.8621°
revolutions per day: 12.86518464
mean anomaly at epoch: 96.8955°
orbit number at epoch: 16795

The dashed part of the orbit path shows where the satellite is in the earth's shadow,  

DLR